"TOA5","AWS1","CR1000","7964","CR1000.Std.14","CPU:AWS1_114.CR1","64363","TBL110"
"TIMESTAMP","RECORD","Wind_spd_WVc(1)","Wind_spd_WVc(2)","Air_Temp_Avg","Humidity_Avg","SW_upper_Wm2_Avg","Rain_Tot","Press_Avg","Issui_Tot","Depth_cm","SR50A_Raw","Quality","Ground_Temp_Avg(1)","Ground_Temp_Avg(2)","SW_lower_Wm2_Avg","Albedo_Avg","SWC_per(1)","SWC_per(2)","Period(1)","Period(2)"
"TS","RN","","","","","","","","","","","","","","","","","","",""
"","","WVc","WVc","Avg","Avg","Avg","Tot","Avg","Tot","Smp","Smp","Smp","Avg","Avg","Avg","Avg","Smp","Smp","Smp","Smp"
"2016-06-23 00:00:00",241117,0.1,160,15.68,100,0,0.5,860.4882,0,17.3,2.924,242,19.33,18.27,0.4509554,0,48.97,55.77,33.04,34.7
"2016-06-23 00:10:00",241118,0.07,342.9,15.64,100,0,0,860.3613,0,13.13,2.965,362,19.28,18.28,0.4661135,0,49.13,55.83,33.08,34.71
"2016-06-23 00:20:00",241119,0.086,331.9,15.62,100,0,0.5,860.3098,0,21.04,2.888,247,19.27,18.28,0.462324,0,49.35,55.83,33.14,34.71
"2016-06-23 00:30:00",241120,0,0,15.67,100,0,0,860.3171,0,-16.74,3.255,193,19.28,18.28,0.4357972,0,49.51,55.83,33.18,34.71
"2016-06-23 00:40:00",241121,0,0,15.62,100,0,0.5,860.2392,0,13.97,2.957,257,19.27,18.27,0.4509554,0,49.68,55.89,33.22,34.72
"2016-06-23 00:50:00",241122,0.036,141.2,15.56,100,0,0.5,860.012,0,318,0,0,19.18,18.27,0.3751645,0,49.79,55.89,33.24,34.72
"2016-06-23 01:00:00",241123,0,0,15.52,100,0,0.5,859.8046,0,16.73,2.93,233,19.19,18.27,0.4547449,0,50.01,55.89,33.3,34.72
"2016-06-23 01:10:00",241124,0,0,15.62,100,0,0,859.8165,0,25.1,2.849,341,19.14,18.27,0.5077985,0,50.17,55.95,33.34,34.74
"2016-06-23 01:20:00",241125,0.074,133.8,15.63,100,0,0.5,859.7432,0,13.7,2.959,278,19.13,18.27,0.4964299,0,50.33,56,33.38,34.75
"2016-06-23 01:30:00",241126,0,0,15.69,100,0,0.5,859.5828,0,16.78,2.929,228,19.1,18.28,0.5570625,0,50.44,56.12,33.41,34.78
"2016-06-23 01:40:00",241127,0,0,15.73,100,0,0,859.558,0,14.83,2.948,248,19.05,18.27,0.4547449,0,50.55,56.23,33.43,34.8
"2016-06-23 01:50:00",241128,0,0,15.59,100,0,0.5,859.3225,0,17.23,2.926,313,19.02,18.28,0.4547449,0,50.66,56.29,33.46,34.82
"2016-06-23 02:00:00",241129,0.051,135.1,15.57,100,0,1,859.3048,0,19.44,2.904,265,19.02,18.28,0.4509554,0,50.77,56.46,33.49,34.86
"2016-06-23 02:10:00",241130,0.021,118.6,15.66,100,0,0.5,859.3007,0,23.26,2.866,317,19.01,18.27,0.4547449,0,50.94,56.64,33.53,34.9
"2016-06-23 02:20:00",241131,0.053,105.7,15.7,100,0,1,859.3018,0,-17.05,3.258,183,18.95,18.27,0.4547449,0,51.16,56.87,33.58,34.95
"2016-06-23 02:30:00",241132,0.007,165.2,15.74,100,0,0,859.2864,0,-13.97,3.228,179,18.95,18.27,0.4547449,0,51.27,57.16,33.61,35.02
"2016-06-23 02:40:00",241133,0.22,118.1,15.74,100,0,0.5,859.1826,0,14.73,2.949,296,18.94,18.28,0.4547449,0,51.21,57.39,33.6,35.07
"2016-06-23 02:50:00",241134,0.161,123.6,15.76,100,0,0.5,859.1155,0,22.7,2.871,296,18.93,18.28,0.4547449,0,51.27,57.62,33.61,35.13
"2016-06-23 03:00:00",241135,0.331,130.9,15.81,100,0,0,859.0885,0,14.74,2.948,331,18.91,18.28,0.4547449,0,51.27,57.86,33.61,35.18
"2016-06-23 03:10:00",241136,0.604,98.3,15.86,100,0,0.5,859.0823,0,17.21,2.924,262,18.92,18.28,0.4547449,0,51.27,57.97,33.61,35.21
"2016-06-23 03:20:00",241137,0.717,101.6,15.93,100,0,0.5,859.0404,0,23.58,2.862,300,18.83,18.27,0.4547449,0,51.33,58.09,33.62,35.24
"2016-06-23 03:30:00",241138,0.993,111.6,15.91,100,0,0.5,859.0364,0,17.41,2.922,282,18.84,18.28,0.280426,0,51.38,58.32,33.64,35.29
"2016-06-23 03:40:00",241139,0.737,100.9,15.95,100,0,0.5,859.0381,0,24.82,2.85,250,18.77,18.28,0.3259005,0,51.49,58.5,33.66,35.33
"2016-06-23 03:50:00",241140,0.743,87.4,15.93,100,0,1,859.0347,0,24.82,2.85,286,18.77,18.28,0.2273725,0,51.6,58.73,33.69,35.39
"2016-06-23 04:00:00",241141,0.477,100.4,15.96,100,0,0.5,859.0383,0,-16.12,3.248,195,18.73,18.28,0.2349515,0,51.66,59.08,33.7,35.47
"2016-06-23 04:10:00",241142,0.698,104.1,15.89,100,0,0,859.0342,0,-18.08,3.267,326,18.75,18.28,0.2273725,0,51.71,59.32,33.72,35.52
"2016-06-23 04:20:00",241143,0.703,103.1,15.83,100,0,0.5,859.0071,0,-13.71,3.225,322,18.71,18.28,0.2576888,0,51.77,59.61,33.73,35.59
"2016-06-23 04:30:00",241144,0.49,131.1,15.82,100,0,0,858.8085,0,23.53,2.863,281,18.69,18.27,0.3183176,0,51.77,59.67,33.73,35.6
"2016-06-23 04:40:00",241145,0.393,133.2,15.81,100,0.1139759,1,858.7852,0,25.69,2.842,368,18.65,18.27,0.3978949,0.394,51.77,59.79,33.73,35.63
"2016-06-23 04:50:00",241146,0.494,134.7,15.81,100,0.9353947,0.5,858.7956,0,20.6,2.891,355,18.62,18.28,0.4547382,0.573,51.88,59.79,33.76,35.63
"2016-06-23 05:00:00",241147,0.724,149.8,15.82,100,2.322759,0,858.7345,0,14.89,2.947,342,18.58,18.29,0.6593692,0.283,51.88,59.91,33.76,35.66
"2016-06-23 05:10:00",241148,0.779,142.4,15.83,100,4.751592,0.5,858.6713,0,15.2,2.944,241,18.58,18.29,1.053465,0.232,51.94,59.97,33.77,35.67
"2016-06-23 05:20:00",241149,0.578,146,15.82,100,6.74821,0.5,858.5339,0,-24.3,3.328,201,18.59,18.3,1.242954,0.184,51.94,60.03,33.77,35.69
"2016-06-23 05:30:00",241150,0.73,148.8,15.84,100,7.105921,0,858.5368,0,24.25,2.856,252,18.58,18.3,1.27707,0.181,51.94,60.09,33.77,35.7
"2016-06-23 05:40:00",241151,0.898,130.1,15.9,100,10.86329,0.5,858.4654,0,-17.07,3.257,198,18.53,18.25,1.784872,0.166,51.94,60.15,33.77,35.71
"2016-06-23 05:50:00",241152,0.306,114.7,15.93,100,13.1861,0,858.498,0,-16.84,3.255,181,18.53,18.24,2.027404,0.156,51.94,60.15,33.77,35.71
"2016-06-23 06:00:00",241153,0.401,121.3,15.95,100,21.95452,0,858.4424,0,19.09,2.905,284,18.51,18.23,3.198367,0.147,51.94,60.27,33.77,35.74
"2016-06-23 06:10:00",241154,0.27,86.3,16.03,100,13.51607,0,858.442,0,19.18,2.904,357,18.48,18.23,1.985694,0.147,51.88,60.33,33.76,35.75
"2016-06-23 06:20:00",241155,0.143,131.8,16.08,100,14.64413,0.5,858.3262,0,10.12,2.992,261,18.49,18.23,2.114548,0.145,51.88,60.33,33.76,35.75
"2016-06-23 06:30:00",241156,0.096,125,16.07,100,20.37432,0.5,858.3445,0,17.43,2.921,211,18.48,18.24,2.838328,0.139,51.88,60.38,33.76,35.77
"2016-06-23 06:40:00",241157,0.3,122.7,16.14,100,30.05419,0,858.2527,0,-23.73,3.321,198,18.42,18.24,4.183559,0.14,51.94,60.44,33.77,35.78
"2016-06-23 06:50:00",241158,0.101,113.9,16.22,100,33.91327,0,858.1533,0,18.12,2.913,229,18.4,18.23,4.657188,0.138,51.94,60.56,33.77,35.81
"2016-06-23 07:00:00",241159,0.157,106.3,16.31,100,41.56152,0,858.1949,0,19.07,2.904,327,18.41,18.23,5.384778,0.13,51.94,60.56,33.77,35.81
"2016-06-23 07:10:00",241160,0.116,123.8,16.37,100,45.68055,0.5,858.1891,0,-13.9,3.223,184,18.38,18.24,5.979747,0.131,51.94,60.62,33.77,35.82
"2016-06-23 07:20:00",241161,0.005,319.8,16.46,100,41.76641,0,858.1776,0,-16.62,3.249,181,18.36,18.25,5.331793,0.128,51.88,60.68,33.76,35.83
"2016-06-23 07:30:00",241162,0.138,41.23,16.55,100,39.05014,0,858.2324,0,-16.78,3.251,170,18.39,18.24,5.127098,0.132,51.88,60.68,33.76,35.83
"2016-06-23 07:40:00",241163,0,0,16.6,100,46.50206,0,858.2355,0,14.64,2.945,232,18.4,18.22,5.892603,0.127,51.88,60.68,33.76,35.83
"2016-06-23 07:50:00",241164,0.027,161.7,16.59,100,45.73078,0,858.1487,0,-24.14,3.322,203,18.36,18.18,5.604486,0.123,51.88,60.68,33.76,35.83
"2016-06-23 08:00:00",241165,0.076,136.4,16.65,100,35.63738,0,858.0043,0,-25.79,3.338,200,18.31,18.15,4.566085,0.128,51.82,60.62,33.75,35.82
"2016-06-23 08:10:00",241166,0.155,107.1,16.61,100,44.06722,0,857.9876,0,13.13,2.96,327,18.3,18.13,5.725602,0.131,51.77,60.56,33.73,35.81
"2016-06-23 08:20:00",241167,0.209,32.17,16.53,100,35.80613,0.5,857.9869,0,9.63,2.995,260,18.3,18.12,4.603948,0.128,51.77,60.5,33.73,35.79
"2016-06-23 08:30:00",241168,0.052,289.6,16.41,100,50.53179,0,857.976,0,11.14,2.98,240,18.3,18.12,6.358373,0.126,51.82,60.5,33.75,35.79
"2016-06-23 08:40:00",241169,0,0,16.54,100,47.68142,0,857.9839,0,318,0,0,18.29,18.12,5.740589,0.12,51.77,60.44,33.73,35.78
"2016-06-23 08:50:00",241170,0.007,96.6,16.56,100,69.67933,1,857.9833,0,-24.23,3.323,198,18.29,18.11,8.877808,0.127,51.77,60.38,33.73,35.77
"2016-06-23 09:00:00",241171,0,0,16.66,100,69.24741,0,857.9674,0,-20.11,3.282,185,18.29,18.11,8.521682,0.122,51.88,60.38,33.76,35.77
"2016-06-23 09:10:00",241172,0.04,189.5,16.71,100,102.4729,0,857.9294,0,6.21,3.027,228,18.28,18.11,13.54587,0.132,51.88,60.38,33.76,35.77
"2016-06-23 09:20:00",241173,0.009,98.5,16.73,100,140.4759,0,857.8217,0,-25.77,3.337,190,18.28,18.1,18.87302,0.131,51.88,60.38,33.76,35.77
"2016-06-23 09:30:00",241174,0.031,31.33,16.85,100,115.2452,0,857.873,0,-15.98,3.242,174,18.27,18.09,14.67836,0.126,51.88,60.38,33.76,35.77
"2016-06-23 09:40:00",241175,0.196,33.74,16.74,100,120.674,0,857.8256,0,8.75,3.001,216,18.27,18.03,16.4892,0.136,51.82,60.33,33.75,35.75
"2016-06-23 09:50:00",241176,0.117,74.61,16.9,100,123.2835,0,857.9639,0,8.75,3.001,258,18.27,18.01,16.51954,0.134,51.77,60.33,33.73,35.75
"2016-06-23 10:00:00",241177,0.257,37.63,16.9,100,150.8656,0,857.8583,0,23.34,2.859,304,18.27,18.01,20.38424,0.135,51.82,60.27,33.75,35.74
"2016-06-23 10:10:00",241178,0.05,312.5,16.98,100,141.5595,0,857.9774,0,-22.13,3.3,192,18.28,18.01,18.36086,0.13,51.77,60.27,33.73,35.74
"2016-06-23 10:20:00",241179,0.068,290,16.93,100,129.8246,0.5,858.1912,0,-17.11,3.252,293,18.31,18,16.66331,0.127,51.77,60.21,33.73,35.73
"2016-06-23 10:30:00",241180,0.258,273.1,16.7,100,142.9079,0,858.2199,0,22.54,2.869,291,18.31,17.97,18.23541,0.126,51.77,60.21,33.73,35.73
"2016-06-23 10:40:00",241181,0.435,336.6,16.39,100,168.7032,0.5,858.2108,0,-22.78,3.31,178,18.32,17.96,22.09971,0.13,51.77,60.15,33.73,35.71
"2016-06-23 10:50:00",241182,0.476,259.7,16.52,100,306.8714,0.5,857.9916,0,-21.38,3.295,195,18.31,17.99,41.15014,0.134,51.82,60.15,33.75,35.71
"2016-06-23 11:00:00",241183,0.832,281.4,16.6,100,331.5052,0,857.9664,0,-27.82,3.357,197,18.27,17.99,43.80983,0.132,51.88,60.21,33.76,35.73
"2016-06-23 11:10:00",241184,0.713,276.6,16.59,100,251.4139,0,858.0886,0,23.98,2.855,257,18.29,18,33.97791,0.135,51.88,60.21,33.76,35.73
"2016-06-23 11:20:00",241185,0.343,260.9,16.69,100,218.146,0,858.2191,0,24.45,2.85,253,18.35,18,29.25698,0.134,51.88,60.21,33.76,35.73
"2016-06-23 11:30:00",241186,0.406,282.5,16.57,100,237.3838,0,858.3202,0,-15.21,3.235,184,18.39,18,32.79177,0.138,51.88,60.21,33.76,35.73
"2016-06-23 11:40:00",241187,0.335,260.9,16.41,100,146.0397,0,858.6402,0,-17.22,3.258,177,18.43,18,19.32279,0.132,51.88,60.21,33.76,35.73
"2016-06-23 11:50:00",241188,0.437,292.7,15.89,100,180.9221,0,858.5892,0,7.816,3.016,270,18.43,18,25.3432,0.14,51.82,60.21,33.75,35.73
"2016-06-23 12:00:00",241189,0.123,192.7,15.93,100,215.796,0,858.5186,0,16.84,2.926,278,18.4,18,29.99307,0.139,51.82,60.15,33.75,35.71
"2016-06-23 12:10:00",241190,0.194,154.9,16.3,100,189.2792,0,858.488,0,-14.01,3.225,199,18.45,18.01,25.90542,0.137,51.77,60.09,33.73,35.7
"2016-06-23 12:20:00",241191,0.329,158.7,16.16,100,187.8171,0,858.4731,0,21.68,2.879,301,18.48,18.01,26.07211,0.139,51.77,60.09,33.73,35.7
"2016-06-23 12:30:00",241192,0.139,234.5,16.33,100,211.7761,0,858.4868,0,24.25,2.854,245,18.49,18,29.54599,0.139,51.77,60.09,33.73,35.7
"2016-06-23 12:40:00",241193,0.246,274.2,16.28,100,324.8877,0,858.6234,0,-25.45,3.336,186,18.46,18,46.14805,0.142,51.77,60.03,33.73,35.69
"2016-06-23 12:50:00",241194,0.249,343.3,16.32,100,233.7534,0,858.7244,0,24.12,2.854,275,18.53,18,32.54231,0.139,51.71,59.97,33.72,35.67
"2016-06-23 13:00:00",241195,0.768,310.5,16.01,100,180.5938,0,858.7475,0,318,0,0,18.53,17.98,25.10474,0.139,51.66,59.97,33.7,35.67
"2016-06-23 13:10:00",241196,0.207,254.2,16.02,100,162.3051,0,858.7307,0,25.75,2.84,261,18.56,17.94,23.509,0.144,51.66,59.91,33.7,35.66
"2016-06-23 13:20:00",241197,0.3,186.5,16.23,100,270.0725,0,858.5724,0,25.59,2.839,240,18.54,17.93,39.25853,0.145,51.66,59.85,33.7,35.64
"2016-06-23 13:30:00",241198,0.392,175.8,16.81,100,422.3448,0,858.5984,0,25.42,2.839,234,18.57,17.95,62.14372,0.146,51.6,59.85,33.69,35.64
"2016-06-23 13:40:00",241199,0.55,174.3,16.96,99.2,404.4567,0,858.7123,0,22.95,2.863,257,18.6,17.96,58.46681,0.144,51.6,59.79,33.69,35.63
"2016-06-23 13:50:00",241200,0.894,179.2,16.75,100,593.1489,0,858.5856,0,16.83,2.922,277,18.58,17.95,89.299,0.149,51.6,59.73,33.69,35.62
"2016-06-23 14:00:00",241201,0.573,230,17.76,96.5,962.6693,0.5,858.5854,0,24.56,2.841,243,18.59,17.88,150.2437,0.155,51.55,59.67,33.68,35.6
"2016-06-23 14:10:00",241202,0.54,221.1,18.37,86.3,644.9154,0,858.4781,0,22.01,2.867,255,18.66,17.88,94.99458,0.143,51.55,59.61,33.68,35.59
"2016-06-23 14:20:00",241203,0.75,54.22,17.91,88.6,461.6162,0,858.5833,0,24.65,2.84,235,18.66,17.88,67.33623,0.14,51.49,59.56,33.66,35.58
"2016-06-23 14:30:00",241204,0.477,74.14,18.11,88.5,298.0106,0,858.6676,0,24.11,2.845,257,18.66,17.88,42.81483,0.138,51.49,59.5,33.66,35.56
"2016-06-23 14:40:00",241205,0.292,263.8,18.67,88.1,733.9822,0,858.5707,0,-13.7,3.206,194,18.73,17.88,113.3218,0.151,51.44,59.44,33.65,35.55
"2016-06-23 14:50:00",241206,0.312,265.7,18.96,87.2,711.8387,0,858.6254,0,-23.25,3.301,197,18.69,17.88,103.048,0.142,51.49,59.44,33.66,35.55
"2016-06-23 15:00:00",241207,0.407,289.7,18.89,81.8,844.142,0,858.5265,0,318,0,0,18.77,17.87,111.1928,0.129,51.44,59.44,33.65,35.55
"2016-06-23 15:10:00",241208,0.277,269.8,19.03,79.83,690.4338,0,858.4949,0,-17.76,3.245,185,18.76,17.88,77.71599,0.113,51.38,59.44,33.64,35.55
"2016-06-23 15:20:00",241209,0.564,303.9,18.59,77.61,352.1004,0,858.5012,0,318,0,0,18.78,17.88,32.82141,0.091,51.33,59.38,33.62,35.54
"2016-06-23 15:30:00",241210,0.456,4.175,18.42,84.3,410.0838,0,858.3286,0,-12,3.195,202,18.92,17.88,32.3441,0.082,51.33,59.32,33.62,35.52
"2016-06-23 15:40:00",241211,0.48,188.7,18.42,82,389.6651,0,858.2128,0,-23.54,3.304,213,18.91,17.88,36.93546,0.107,51.33,59.26,33.62,35.51
"2016-06-23 15:50:00",241212,0.697,66.34,18.72,77.1,204.6235,0,858.2107,0,14.94,2.932,265,18.96,17.88,29.90446,0.181,51.27,59.26,33.61,35.51
"2016-06-23 16:00:00",241213,0.584,331.7,18.71,74.76,94.40473,0,858.078,0,-27.05,3.338,340,19.07,17.87,23.77507,0.255,51.27,59.2,33.61,35.5
"2016-06-23 16:10:00",241214,0.788,286.8,18.68,73.58,100.4435,0,858.2064,0,-14.88,3.22,185,19.02,17.87,17.07365,0.218,51.21,59.14,33.6,35.48
"2016-06-23 16:20:00",241215,0.742,233.5,18.29,77.49,73.2277,0,858.337,0,-26.87,3.342,208,19.09,17.87,14.73251,0.215,51.21,59.14,33.6,35.48
"2016-06-23 16:30:00",241216,0.27,238.1,17.75,83.2,62.08208,0,858.4655,0,-26.98,3.342,216,19.13,17.86,12.74385,0.207,51.21,59.14,33.6,35.48
"2016-06-23 16:40:00",241217,0.594,126.8,18.07,82.2,69.42034,0,858.7223,0,-26.68,3.339,202,19.25,17.85,13.26716,0.192,51.21,59.14,33.6,35.48
"2016-06-23 16:50:00",241218,0.55,128.3,17.9,81.2,64.32042,0,858.9412,0,16.49,2.922,280,19.28,17.91,11.03647,0.172,51.21,59.08,33.6,35.47
"2016-06-23 17:00:00",241219,0.372,168.9,17.58,82.4,53.16669,0,858.7322,0,-17.05,3.249,279,19.24,17.92,9.104547,0.171,51.16,59.08,33.58,35.47
"2016-06-23 17:10:00",241220,0.297,221,17.11,84.1,44.88363,0,858.7775,0,-33.6,3.411,268,19.32,17.92,7.206412,0.161,51.16,59.03,33.58,35.45
"2016-06-23 17:20:00",241221,0.385,207.5,16.82,82.6,40.42393,0,859.2365,0,-15.67,3.238,191,19.33,17.93,6.03192,0.149,51.16,59.03,33.58,35.45
"2016-06-23 17:30:00",241222,0.492,216.7,16.65,87.6,42.47747,0,859.6476,0,19.63,2.898,342,19.39,17.94,6.058767,0.143,51.1,58.97,33.57,35.44
"2016-06-23 17:40:00",241223,0.64,242.2,16.31,90.4,54.95088,0,859.7708,0,-23.51,3.317,210,19.43,17.94,8.476236,0.153,51.1,58.97,33.57,35.44
"2016-06-23 17:50:00",241224,0.282,151.6,16.15,94.6,78.1003,0,860.1815,0,19.4,2.901,318,19.46,17.95,12.41734,0.158,51.1,58.97,33.57,35.44
"2016-06-23 18:00:00",241225,0.651,351.4,15.93,90.3,80.952,0,860.4814,0,-23.94,3.326,284,19.5,17.97,13.12632,0.159,50.94,58.91,33.53,35.43
"2016-06-23 18:10:00",241226,0.616,166,15.4,95.3,41.32493,0,860.0983,0,19.13,2.908,325,19.47,17.99,5.123213,0.116,50.99,58.91,33.54,35.43
"2016-06-23 18:20:00",241227,0.426,221.4,15.13,94.7,20.45635,0,860.2982,0,18.32,2.918,340,19.45,18.04,2.08038,0.101,51.05,58.85,33.56,35.41
"2016-06-23 18:30:00",241228,0.271,192.4,14.73,100,15.74446,0,860.0897,0,18.34,2.92,312,19.44,18.05,1.644634,0.104,51.05,58.85,33.56,35.41
"2016-06-23 18:40:00",241229,0.572,189.6,14.41,99.2,12.65937,0,859.7294,0,7.509,3.026,257,19.41,18.06,1.618126,0.128,50.99,58.85,33.54,35.41
"2016-06-23 18:50:00",241230,0.38,11.93,14.36,98.8,10.89473,0,859.9065,0,-22.76,3.322,192,19.4,18.06,1.826556,0.166,50.99,58.79,33.54,35.4
"2016-06-23 19:00:00",241231,0.216,3.301,14.23,100,4.413707,0,860.2402,0,-22.55,3.32,189,19.44,18.06,0.9170687,0.213,50.99,58.79,33.54,35.4
"2016-06-23 19:10:00",241232,0.052,77.77,14.27,100,2.271704,0,860.3295,0,-22.5,3.319,198,19.45,18.08,0.6783278,0.312,50.94,58.79,33.53,35.4
"2016-06-23 19:20:00",241233,0.272,32.21,14.26,100,0.471634,0,860.3949,0,-22.71,3.322,192,19.44,18.13,0.4471658,0.538,50.99,58.79,33.54,35.4
"2016-06-23 19:30:00",241234,0.007,141.5,14.19,100,0,0,860.494,0,-22.81,3.323,197,19.4,18.12,0.2880051,0,50.94,58.85,33.53,35.41
"2016-06-23 19:40:00",241235,0.092,295.3,14.05,100,0,0,860.6287,0,-23.2,3.328,199,19.39,18.1,0.03031633,0,50.94,58.79,33.53,35.4
"2016-06-23 19:50:00",241236,0.066,28.63,14.03,100,0,0,860.6688,0,-23.53,3.33,200,19.36,18.1,0.07579082,0,50.94,58.79,33.53,35.4
"2016-06-23 20:00:00",241237,0.032,40.67,14.17,100,0,0,860.732,0,-23.55,3.33,185,19.33,18.09,0.3448482,0,50.94,58.73,33.53,35.39
"2016-06-23 20:10:00",241238,0.052,290.8,14.15,100,0,0,860.951,0,-32.5,3.418,466,19.28,18.07,0.1440025,0,50.94,58.73,33.53,35.39
"2016-06-23 20:20:00",241239,0.264,30.26,13.96,100,0,0,861.2627,0,-23.01,3.327,200,19.3,18.07,0.06821174,0,50.88,58.73,33.52,35.39
"2016-06-23 20:30:00",241240,0.037,35.92,13.86,100,0,0,861.6461,0,-23.53,3.331,193,19.3,18.09,0,0,50.88,58.79,33.52,35.4
"2016-06-23 20:40:00",241241,0.081,346.2,13.76,100,0,0,861.9746,0,-22.91,3.327,188,19.28,18.12,0,0,50.88,58.73,33.52,35.39
"2016-06-23 20:50:00",241242,0.081,355.1,13.63,100,0,0,862.0988,0,-22.94,3.328,186,19.29,18.14,0,0,50.88,58.73,33.52,35.39
"2016-06-23 21:00:00",241243,0.13,283.8,13.45,100,0,0,862.0988,0,-22.6,3.325,198,19.27,18.14,0,0,50.88,58.73,33.52,35.39
"2016-06-23 21:10:00",241244,0.252,185.3,13.54,100,0,0,862.1073,0,-22.48,3.323,183,19.21,18.15,0.2084248,0,50.88,58.73,33.52,35.39
"2016-06-23 21:20:00",241245,0.129,260.9,13.59,100,0,0,862.101,0,-22.66,3.325,182,19.19,18.15,0.3827437,0,50.88,58.73,33.52,35.39
"2016-06-23 21:30:00",241246,0.049,189.8,13.6,100,0,0,861.9725,0,-22.91,3.327,184,19.17,18.16,0.2349515,0,50.83,58.67,33.5,35.37
"2016-06-23 21:40:00",241247,0.269,206.1,13.59,100,0,0,861.8398,0,-22.42,3.323,192,19.14,18.19,0.2463202,0,50.88,58.67,33.52,35.37
"2016-06-23 21:50:00",241248,0.208,161.7,13.52,100,0,0,861.8104,0,-22.12,3.32,188,19.16,18.2,0.09852806,0,50.83,58.67,33.5,35.37
"2016-06-23 22:00:00",241249,0.22,275.9,13.48,100,0,0,861.7324,0,-22.66,3.325,196,19.12,18.22,0.1440025,0,50.83,58.67,33.5,35.37
"2016-06-23 22:10:00",241250,0.105,48.04,13.45,100,0,0,861.7745,0,-22.19,3.321,187,19.03,18.23,0.05305357,0,50.83,58.67,33.5,35.37
"2016-06-23 22:20:00",241251,0.148,44.15,13.43,100,0,0,861.9451,0,-22.24,3.322,201,19.05,18.23,0.04926403,0,50.83,58.61,33.5,35.36
"2016-06-23 22:30:00",241252,0.165,66.26,13.37,100,0,0,862.1936,0,-23.88,3.339,192,19.07,18.22,0.02273725,0,50.83,58.61,33.5,35.36
"2016-06-23 22:40:00",241253,0.039,59.94,13.27,100,0,0,862.3453,0,18.83,2.921,363,19.03,18.22,0.02273725,0,50.83,58.61,33.5,35.36
"2016-06-23 22:50:00",241254,0.031,131.7,13.25,100,0,0,862.3516,0,-24.55,3.346,184,18.97,18.22,0.04168495,0,50.77,58.61,33.49,35.36
"2016-06-23 23:00:00",241255,0.133,141.8,13.14,100,0,0,861.9999,0,-22.45,3.326,190,18.97,18.22,0,0,50.77,58.61,33.49,35.36
"2016-06-23 23:10:00",241256,0.346,177.3,13.04,100,0,0,861.8398,0,-21.89,3.321,198,18.99,18.22,0.09094898,0,50.83,58.61,33.5,35.36
"2016-06-23 23:20:00",241257,0.203,175.9,13.03,100,0,0,861.5891,0,-23.27,3.334,196,18.99,18.22,0.2008457,0,50.77,58.61,33.49,35.36
"2016-06-23 23:30:00",241258,0.221,181.2,12.95,100,0,0,861.4881,0,-1.289,3.12,296,18.94,18.22,0.04926403,0,50.77,58.61,33.49,35.36
"2016-06-23 23:40:00",241259,0.433,175.6,12.83,100,0,0,861.3112,0,-24.01,3.344,197,18.95,18.22,0,0,50.77,58.56,33.49,35.35
"2016-06-23 23:50:00",241260,0.183,188.1,12.65,100,0,0,861.3154,0,-24.85,3.352,198,18.95,18.23,0.02273725,0,50.77,58.56,33.49,35.35
